This is the latest recevied weather packets stored in our database for station/object KC5DAQ-27. If no packets are shown the sender has not sent any weather packets the latest 10 day(s).
| Time | Temp. | Humidity | Pressure | Rain* | Wind** | Luminosity | Snow |
|---|---|---|---|---|---|---|---|
| 1778108763 | 28.33° C | 84% | 999.8 hPa | 0 mm | - | 79 W/m² | - |
| 1778108703 | 28.33° C | 84% | 999.9 hPa | 0 mm | - | 93 W/m² | - |
| 1778108642 | 28.33° C | 84% | 999.9 hPa | 0 mm | - | 100 W/m² | - |
| 1778108582 | 28.33° C | 84% | 999.9 hPa | 0 mm | - | 98 W/m² | - |
| 1778108523 | 28.33° C | 83% | 999.9 hPa | 0 mm | - | 95 W/m² | - |
| 1778108463 | 28.33° C | 83% | 999.9 hPa | 0 mm | - | 90 W/m² | - |
| 1778108402 | 28.89° C | 83% | 999.9 hPa | 0 mm | - | 90 W/m² | - |
| 1778108344 | 28.89° C | 83% | 999.9 hPa | 0 mm | - | 104 W/m² | - |
| 1778108282 | 28.89° C | 83% | 999.8 hPa | 0 mm | - | 113 W/m² | - |
| 1778108222 | 28.89° C | 83% | 999.8 hPa | 0 mm | - | 125 W/m² | - |
| 1778108163 | 28.89° C | 83% | 999.8 hPa | 0 mm | - | 135 W/m² | - |
| 1778108103 | 28.89° C | 83% | 999.7 hPa | 0 mm | - | 144 W/m² | - |
| 1778108042 | 28.89° C | 83% | 999.7 hPa | 0 mm | - | 158 W/m² | - |
| 1778107981 | 28.89° C | 83% | 999.7 hPa | 0 mm | - | 165 W/m² | - |
| 1778107920 | 28.89° C | 83% | 999.8 hPa | 0 mm | - | 153 W/m² | - |
| 1778107859 | 28.89° C | 83% | 999.7 hPa | 0 mm | - | 157 W/m² | - |
| 1778107798 | 28.89° C | 83% | 999.7 hPa | 0 mm | - | 172 W/m² | - |
| 1778107735 | 28.89° C | 83% | 999.8 hPa | 0 mm | - | 181 W/m² | - |
| 1778107674 | 28.89° C | 83% | 999.8 hPa | 0 mm | - | 149 W/m² | - |
| 1778107613 | 28.89° C | 83% | 999.7 hPa | 0 mm | - | 135 W/m² | - |
| 1778107551 | 28.89° C | 83% | 999.8 hPa | 0 mm | - | 125 W/m² | - |
| 1778107490 | 28.89° C | 83% | 999.8 hPa | 0 mm | - | 118 W/m² | - |
| 1778107428 | 28.89° C | 83% | 999.6 hPa | 0 mm | - | 118 W/m² | - |
| 1778107366 | 28.89° C | 83% | 999.7 hPa | 0 mm | - | 123 W/m² | - |
| 1778107304 | 28.89° C | 83% | 999.7 hPa | 0 mm | - | 130 W/m² | - |
* Rain latest hour (hover to see other rain measurements)
** Current wind speed in m/s (hover to see current wind gust speed)